Showing default

KUIPER-00174, 65787

Orbit data source: Space-Track

KUIPER-00174, 65787 is a payload satellite owned by Kuiper Systems (US) in LEO that was launched on Thu, 25 Sep 2025 UTC via an ATLAS V 551 launch vehicle from the Air Force Eastern Test Range (AFETR). Payload-class satellites include a variety of spacecraft equipped with specific instruments for various scientific and technological missions. These include communications satellites like Starlink; space stations such as the ISS; scientific satellites like the Hubble; Earth observation satellites from companies like Planet Labs, Umbra, and HawkEye 360; GPS; miniature CubeSats for education and research; and military/defense satellites.

Loading next visibility...
Identifier
65787, 2025-217AB
Orbit
LEO
Country
Flag of USUS
Related business
Manufacturer
Kuiper Systems
Mission
Operational Commercial Communications
Bus & Motor
KUIPER, Unknown motor
Mass
~490 kg wet, ~490 kg dry
Launch date (UTC)
2025-09-25 (9 months ago)
Launch vehicle
ATLAS V 551
Launch site
Air Force Eastern Test Range (AFETR)
Object type
Payload
Rocket body
Debris
Shape & HBR
Box + 2 Pan, 3.4 m
Radar Cross Section
2.326 m², Large (>1 m²)

Expand to show TLE details & history
Last TLE update: 1 day ago

TLE from 1 day ago
0 KUIPER-00174
1 65787U 25217AB  26170.73704000  .00003037  00000-0  42717-3 0  9994
2 65787  51.9030 296.9033 0000571 102.0919 258.0108 14.79938197 40196
Epoch: 2026-06-19T17:41Z
TLE epoch observation values (Epoch: 2026-06-19T17:41:20.256Z)
Latitude
0.00005°
Longitude
123.60721°
Altitude
630.349 km
Speed
7.544 km/s
True Right ascension
19h 47m 36s
True Declination
0° 00' 00"
Sunlit
Object was in full shadow at epoch
Visualization orbit readout
Latitude
Unknown
Longitude
Unknown
Altitude
Unknown
Speed
Unknown
Apparent Right ascension
Unknown
Apparent Declination
Unknown
Sunlit
N/A
Visualization observer readout
Local Sidereal Time
08:32:48
Azimuth
Unknown
Elevation
Unknown
Doppler factor
Unknown
Orbital elements
Apogee altitude
630.37 km
Perigee altitude
629.57 km
Semi-major axis
7,008.107 km
Eccentricity
0.00006
Inclination
51.903°
RAAN
296.9033°
Arg. of periapsis
102.0919°
True anomaly
258.0044°
Mean anomaly
258.0108°
Eccentric anomaly
258.0076°
Mean motion
3.69949 °/min
Orbital period
97.31 mins
BSTAR
0.00042717
Loading maneuver chart data...
Computing Atmospheric mass density...
Loading historical data...
Loading historical data...
Loading historical data...
Loading historical data...
Loading historical data...
Loading historical data...
Loading historical data...

Documentation

Showing up to 5 results
|